Location: Newark
(22.3060°N, 114.2134°E)
Time: 02:55:07
(UTC+00:00)

Explorer 11/Cluster Stage 4 - Pass Details

Date: 29 July 2021
Orbit: 467 x 1256 km, 28.8° (Epoch: 27 September)

Event Time Altitude Azimuth Distance (km) Brightness Sun altitude
Rises 23:45:42 0° 225° (SW) 3,901 9.7 24.0°
Reaches altitude 10° 23:48:31 10° 218° (SW) 3,034 9.2 24.6°
Maximum altitude 23:55:43 42° 150° (SSE) 1,692 8.8 26.2°
Drops below altitude 10° 00:03:20 10° 83° (E) 3,222 11.5 28.0°
Sets 00:06:25 0° 77° (ENE) 4,163 11.5 28.7°
